EW7899 Weather Reports


Display with metric or nautical units.
time (UTC)temp
F
wind
direction
speed
MPH
gust
MPH
rain 1hr
in
rain 24hr
in
rain mn
in
humidity
%
barometer
mb
20260904133015 65 359 3.0 7.0 0.00 0.00 0.00 90 1008.8
20260904131529 65 35 0.0 2.0 0.00 0.00 0.00 92 1008.8
20260904130015 64 37 0.0 2.0 0.00 0.01 0.00 93 1008.9
20260904124523 63 4 0.0 4.0 0.00 0.01 0.00 94 1008.9
20260904123014 63 359 0.0 1.0 0.00 0.01 0.00 94 1008.9
20260904121515 62 359 3.0 9.0 0.00 0.01 0.00 95 1008.8
20260904120021 61 359 3.0 9.0 0.00 0.01 0.00 96 1009.0
20260904114511 61 359 2.0 9.0 0.00 0.01 0.00 96 1008.8
20260904113021 60 324 1.0 8.0 0.00 0.01 0.00 96 1008.6
20260904111510 60 310 0.0 1.0 0.00 0.01 0.00 96 1008.4
20260904110019 59 326 0.0 5.0 0.00 0.01 0.00 96 1008.3
20260904104509 59 110 0.0 0.0 0.00 0.01 0.00 95 1008.2
20260904103005 58 110 0.0 0.0 0.00 0.01 0.00 95 1008.1
20260904101511 58 110 0.0 0.0 0.00 0.01 0.00 95 1008.1
20260904100029 59 110 0.0 0.0 0.00 0.01 0.00 95 1008.0
20260904094508 59 110 0.0 0.0 0.00 0.01 0.00 95 1007.9
20260904093019 59 68 0.0 0.0 0.00 0.01 0.00 95 1007.9
20260904091508 60 104 0.0 0.0 0.00 0.01 0.00 95 1007.9
20260904090020 60 106 0.0 0.0 0.00 0.01 0.00 95 1007.9
20260904084506 60 106 0.0 0.0 0.00 0.01 0.00 94 1007.8
20260904083018 61 143 0.0 0.0 0.00 0.01 0.00 94 1007.7
20260904081506 61 141 0.0 5.0 0.00 0.01 0.00 94 1007.7
20260904080019 61 38 0.0 0.0 0.00 0.01 0.00 95 1007.8
20260904074509 61 328 0.0 6.0 0.00 0.01 0.00 95 1007.7
20260904073017 61 308 2.0 8.0 0.00 0.01 0.00 96 1007.7
20260904071507 60 12 0.0 8.0 0.00 0.01 0.00 95 1007.7
20260904070020 60 287 0.0 0.0 0.00 0.01 0.00 95 1007.6
20260904064512 60 39 0.0 0.0 0.00 0.01 0.00 95 1007.6
20260904063024 61 39 0.0 0.0 0.00 0.01 0.00 95 1007.7
20260904061510 61 39 0.0 0.0 0.00 0.01 0.00 95 1007.9
20260904060016 61 39 0.0 0.0 0.00 0.13 0.00 95 1007.9
20260904054508 61 37 0.0 0.0 0.00 0.13 0.00 95 1007.9
20260904053020 61 341 0.0 0.0 0.00 0.13 0.00 95 1008.0
20260904051507 61 341 0.0 0.0 0.00 0.13 0.00 94 1008.1
20260904050014 62 252 0.0 0.0 0.00 0.22 0.00 94 1008.1
20260904044525 62 247 0.0 0.0 0.00 0.22 0.00 94 1008.2
20260904043012 63 245 0.0 0.0 0.00 0.22 0.00 94 1008.3
20260904041522 63 245 0.0 0.0 0.00 0.22 0.00 94 1008.4
20260904040013 63 246 0.0 0.0 0.00 0.45 0.22 94 1008.7
20260904034520 63 246 0.0 0.0 0.00 0.45 0.22 94 1008.6
20260904033014 64 359 0.0 0.0 0.00 0.45 0.22 94 1008.5
20260904031521 63 246 0.0 0.0 0.00 0.45 0.22 94 1008.5
20260904030009 63 246 0.0 0.0 0.00 0.52 0.22 94 1008.5
20260904024520 64 245 0.0 0.0 0.00 0.52 0.22 93 1008.5
20260904023008 64 359 0.0 0.0 0.00 0.52 0.22 93 1008.5
20260904021517 64 245 0.0 0.0 0.00 0.52 0.22 93 1008.6
20260904020009 64 359 0.0 0.0 0.00 0.55 0.22 93 1008.7
20260904014527 64 245 0.0 0.0 0.00 0.55 0.22 93 1008.7
20260904013006 65 246 0.0 0.0 0.00 0.55 0.22 93 1008.6
20260904011527 65 245 0.0 0.0 0.00 0.55 0.22 93 1008.7
20260904010020 65 245 0.0 0.0 0.00 0.55 0.22 93 1008.7
20260904004525 65 247 0.0 0.0 0.00 0.55 0.22 93 1008.6
20260904003011 65 359 0.0 0.0 0.00 0.55 0.22 93 1008.4
20260904001512 66 246 0.0 0.0 0.00 0.55 0.22 92 1008.1
20260904000021 66 247 0.0 0.0 0.00 0.55 0.22 91 1007.7
20260903234525 67 359 0.0 0.0 0.00 0.55 0.22 91 1007.7
20260903233008 67 359 0.0 0.0 0.00 0.55 0.22 90 1007.5
20260903231514 68 359 0.0 0.0 0.00 0.55 0.22 90 1007.5
20260903230016 69 359 0.0 1.0 0.00 0.55 0.22 90 1007.6
20260903224531 69 359 0.0 2.0 0.00 0.55 0.22 90 1007.8
20260903223005 70 246 0.0 4.0 0.00 0.55 0.22 89 1007.7
20260903221514 70 311 0.0 0.0 0.00 0.55 0.22 89 1007.6
20260903220035 71 359 0.0 0.0 0.00 0.55 0.22 88 1007.6
20260903214524 71 311 1.0 5.0 0.00 0.55 0.22 88 1007.8
20260903213013 71 313 0.0 5.0 0.00 0.55 0.22 88 1007.9
20260903211513 71 359 0.0 5.0 0.00 0.55 0.22 87 1007.7
20260903210026 72 316 0.0 0.0 0.00 0.55 0.22 86 1007.7
20260903204526 72 316 0.0 4.0 0.00 0.55 0.22 85 1007.8
20260903203011 73 324 0.0 4.0 0.00 0.55 0.22 83 1007.5
20260903201523 74 309 0.0 8.0 0.00 0.55 0.22 81 1007.5
20260903200008 74 359 2.0 8.0 0.00 0.55 0.22 77 1007.6
20260903194513 75 324 5.0 10.0 0.00 0.55 0.22 69 1007.6
20260903193018 76 326 2.0 10.0 0.00 0.55 0.22 65 1007.5
20260903191522 77 359 9.0 13.0 0.00 0.55 0.22 63 1007.3
20260903190009 77 359 0.0 10.0 0.00 0.55 0.22 69 1007.3
20260903184515 75 339 5.0 12.0 0.00 0.55 0.22 70 1007.5
20260903183017 76 303 2.0 11.0 0.00 0.55 0.22 69 1007.6
20260903181525 76 359 4.0 13.0 0.00 0.55 0.22 73 1007.5
20260903180017 77 294 9.0 14.0 0.00 0.55 0.22 63 1007.6
20260903174524 76 337 6.0 13.0 0.00 0.55 0.22 75 1007.6
20260903173023 75 359 6.0 13.0 0.00 0.55 0.22 70 1007.6
20260903171520 75 359 4.0 15.0 0.00 0.55 0.22 76 1007.8
20260903170008 76 359 4.0 13.0 0.00 0.55 0.22 73 1007.8
20260903164515 76 287 10.0 19.0 0.00 0.55 0.22 69 1007.8
20260903163019 74 359 6.0 12.0 0.00 0.55 0.22 81 1007.8
20260903161522 73 359 1.0 9.0 0.00 0.55 0.22 85 1007.9
20260903160015 73 305 5.0 10.0 0.00 0.55 0.22 83 1008.0
20260903154519 71 289 0.0 9.0 0.00 0.55 0.22 94 1008.0
20260903153012 70 181 0.0 5.0 0.00 0.55 0.22 96 1008.2
20260903151519 69 283 0.0 10.0 0.00 0.55 0.22 97 1008.3
20260903150023 69 10 0.0 7.0 0.00 0.55 0.22 97 1008.5
20260903144519 68 236 0.0 0.0 0.00 0.55 0.22 97 1008.6
20260903143018 68 274 0.0 1.0 0.00 0.55 0.22 97 1008.8
20260903141524 68 252 0.0 0.0 0.00 0.55 0.22 97 1008.7
20260903140006 67 216 0.0 1.0 0.00 0.55 0.22 97 1008.6
20260903134534 67 181 0.0 0.0 0.00 0.55 0.22 97 1008.6